KATLKALX

Guest
Details From KATL - Hartsfield Jackson Atlanta Intl
To KALX - THOMAS C RUSSELL FLD
Flight Number -
Tags decoded
Created
Modified
Stats Distance 91 nm / 169 km
Max Altitude 0 ft / 0 m
Waypoints 3
Social Downloads 1
Likes 0
Share VATSIM

Download

Looking for another format? Having issues loading an existing format? Contact us
Advertisement - Login to hide

Notes

Requested: KATL WEONE KALX

Route

KATL WEONE KALX

ID Type Via Altitude Latitude Longitude Leg Dist Tot Dist Heading (true) Name
O KATL APT - 0 ft / 0 m 33.63662˚ -84.42821˚ - 0 nm - Hartsfield Jackson Atlanta Intl
WEONE FIX - 0 ft / 0 m 33.52569˚ -85.12225˚ 35 nm 35 nm 259° / 259° -
O KALX APT - 0 ft / 0 m 32.91474˚ -85.96296˚ 55 nm 91 nm 229° / 229° THOMAS C RUSSELL FLD

Altitude Profile

Advertisement - Login to hide

KATL

Details ICAO KATL (ATL)
Name Hartsfield Jackson Atlanta Intl
Region United States
Timezone America/New_York (UTC-4.0)
Stats Elevation 1,026 ft / 313 m (AMSL)
Location 33.636623° -84.428207°
Runways 5
Magnetic Variation 5.130° W

METAR

KATL 220352Z 12006KT 10SM FEW090 SCT200 22/18 A3011 RMK AO2 SLP185 T02170178

Decode

TAF

TAF AMD KATL 220355Z 2204/2306 13006KT P6SM SCT045 BKN100 FM220700 13006KT P6SM BKN025 FM220900 13005KT P6SM OVC008 FM221500 15005KT P6SM VCSH BKN012 FM221800 16006KT P6SM VCSH BKN035 PROB30 2218/2224 4SM TSRA BKN020CB

Decode

Departure Runways

ID Width Length Bearing (true) Bearing (mag) Surface Threshold Offset Overrun Length
08L 151 ft / 46 m 8,983 ft / 2,738 m 89.97° 95.10° Concrete 0 ft / 0 m 394 ft / 120 m
08R 151 ft / 46 m 9,980 ft / 3,042 m 89.97° 95.10° Concrete 0 ft / 0 m 394 ft / 120 m
09L 151 ft / 46 m 11,866 ft / 3,617 m 90.00° 95.13° Concrete 0 ft / 0 m 394 ft / 120 m
09R 151 ft / 46 m 8,983 ft / 2,738 m 89.97° 95.10° Concrete 0 ft / 0 m 230 ft / 70 m
10 151 ft / 46 m 8,982 ft / 2,738 m 89.96° 95.09° Concrete 0 ft / 0 m 394 ft / 120 m
26L 151 ft / 46 m 9,980 ft / 3,042 m 269.99° 275.12° Concrete 0 ft / 0 m 394 ft / 120 m
26R 151 ft / 46 m 8,983 ft / 2,738 m 269.99° 275.12° Concrete 0 ft / 0 m 394 ft / 120 m
27L 151 ft / 46 m 8,983 ft / 2,738 m 269.99° 275.12° Concrete 0 ft / 0 m 197 ft / 60 m
27R 151 ft / 46 m 11,866 ft / 3,617 m 270.02° 275.15° Concrete 0 ft / 0 m 394 ft / 120 m
28 151 ft / 46 m 8,982 ft / 2,738 m 269.98° 275.11° Concrete 0 ft / 0 m 394 ft / 120 m

KALX

Details ICAO KALX
Name THOMAS C RUSSELL FLD
Region United States
Timezone America/Chicago (UTC-5.0)
Stats Elevation 686 ft / 209 m (AMSL)
Location 32.914743° -85.962956°
Runways 1
Magnetic Variation 3.981° W

METAR

KALX 220435Z AUTO 00000KT 10SM SCT010 OVC015 21/21 A3007 RMK AO2 T02120212

Decode

TAF

Not found

Destination Runways

ID Width Length Bearing (true) Bearing (mag) Surface Threshold Offset Overrun Length
18 96 ft / 29 m 5,441 ft / 1,659 m 177.54° 181.52° Asphalt 619 ft / 189 m 0 ft / 0 m
36 96 ft / 29 m 5,441 ft / 1,659 m 357.54° 1.52° Asphalt 0 ft / 0 m 0 ft / 0 m